Theta_e
300 299 297 296 298 299 300 299 296 295 297 297 297 297 294 295 296 296 295 295 294 295 297 298 299 298 299 301 303 304 303 300 300 300 301 302 303 303 303 303 304 304 305 308 306 305 306 308 309 309 310 310 311 311 310 310 309 309 306 305 304 303 302 302 302 302 301 300 300 300 300 299 300 296 297 297 298 298 298 300 301 301 301 301 301 301
300 297 297 300 297 298 297 295 296 295 297 296 296 295 295 295 294 296 296 295 296 295 297 298 296 297 299 301 302 303 302 301 301 301 302 302 303 304 304 305 305 304 306 303 303 303 305 307 309 309 309 309 308 309 309 309 309 309 306 305 303 303 303 303 303 302 303 303 303 302 300 299 299 298 296 296 296 296 297 298 298 298 299 300 300 300
297 294 297 296 294 295 295 295 297 297 296 296 296 296 294 296 297 295 293 295 296 295 295 297 295 297 299 300 302 302 302 303 303 303 304 304 305 304 304 305 305 304 304 302 302 303 304 306 308 308 309 309 309 309 309 309 309 307 304 304 303 303 303 303 303 304 303 302 301 300 298 299 295 294 295 296 296 295 295 295 295 296 297 298 299 299
292 296 297 295 296 296 293 294 296 296 297 296 295 293 293 296 292 292 295 294 294 294 296 296 294 296 299 301 301 303 303 303 305 304 304 304 303 304 305 306 305 304 304 302 301 301 302 305 307 307 308 308 309 308 308 308 307 305 305 304 303 303 304 304 303 300 299 298 297 297 296 295 297 295 292 292 293 293 293 293 294 294 295 296 297 298
294 296 292 294 295 297 294 293 295 295 294 296 297 296 295 293 295 293 293 295 294 293 293 295 295 297 300 299 301 302 302 301 302 303 303 304 305 305 306 305 305 303 304 303 302 302 302 303 305 307 307 308 307 307 307 308 307 304 304 303 303 303 302 302 299 297 296 295 294 293 293 294 294 295 294 292 291 292 292 292 293 293 294 295 295 296
294 294 294 294 294 294 295 293 295 297 293 295 296 297 296 297 294 293 294 295 295 295 295 293 290 293 296 297 298 302 300 301 302 301 303 304 305 304 302 303 304 305 305 304 303 302 302 303 305 307 307 307 307 307 308 307 306 305 304 304 303 302 301 300 298 296 296 295 294 293 293 292 294 291 291 292 291 291 292 292 292 292 293 294 294 295
294 291 295 295 294 295 295 295 297 298 294 293 293 296 297 295 295 295 293 294 290 289 294 294 289 287 296 296 298 300 300 301 304 304 304 305 304 303 303 304 303 303 303 303 304 303 302 303 305 306 306 307 307 307 308 307 305 305 305 303 302 301 300 299 298 297 296 295 295 295 297 297 296 294 295 296 295 294 293 293 292 292 292 293 293 295
293 292 293 296 295 296 294 292 295 296 295 292 293 293 295 295 295 295 295 295 293 294 296 293 295 289 289 296 299 300 297 299 300 303 305 306 305 303 303 304 304 303 303 302 302 302 303 303 304 305 306 307 307 308 308 305 305 305 304 302 301 300 298 297 297 297 296 296 296 298 300 300 299 299 296 294 292 293 292 292 292 292 291 292 293 294
294 292 293 293 295 294 294 296 297 298 295 294 291 295 295 296 296 295 295 294 293 290 289 291 295 289 290 295 294 296 297 297 299 302 304 305 304 303 305 303 302 302 302 302 302 301 301 302 304 306 306 307 307 307 307 306 305 305 304 302 300 299 297 297 296 296 296 297 299 301 302 302 301 297 294 292 291 291 292 291 291 291 291 291 293 293
292 295 296 297 295 293 295 291 293 298 295 292 293 295 294 295 295 296 294 295 292 290 287 290 293 287 288 295 293 296 297 297 300 302 304 304 303 304 304 302 299 298 299 300 301 301 302 303 304 306 308 307 307 307 307 307 306 304 302 300 299 298 297 296 295 294 295 297 297 297 299 298 293 293 292 292 291 291 291 290 291 291 291 291 291 292
293 295 295 295 295 296 292 292 291 294 294 295 297 298 296 296 295 294 294 293 291 285 288 292 293 291 286 296 295 294 297 299 301 303 303 303 305 304 301 300 301 298 298 299 299 300 301 303 304 306 307 307 307 307 306 306 303 300 300 299 298 297 297 295 294 294 294 296 296 296 296 294 292 291 291 291 291 290 291 290 290 291 291 291 291 291
295 294 296 295 293 294 297 295 294 293 295 298 297 296 295 293 293 293 291 292 286 285 288 288 291 293 284 291 295 300 298 296 299 300 302 303 304 303 302 299 298 297 298 299 298 299 300 301 303 305 305 306 305 305 305 305 302 299 299 298 297 296 296 295 294 294 295 295 294 294 293 292 291 290 290 291 291 291 291 291 291 291 291 290 290 290
292 295 296 295 295 296 298 296 294 295 295 297 297 295 288 286 286 284 287 283 285 284 287 287 288 288 287 292 297 298 299 300 300 301 302 304 303 305 302 300 298 298 298 298 298 299 299 300 301 303 304 305 304 304 304 304 302 299 298 297 296 295 295 295 295 294 294 294 293 293 292 292 291 290 291 292 292 292 292 291 291 290 290 289 289 289
292 295 293 296 295 296 300 293 292 290 294 295 293 291 287 282 282 280 283 280 281 285 285 288 291 286 292 295 299 299 301 303 303 302 303 303 303 304 303 301 298 298 298 298 298 299 299 300 301 303 304 304 304 304 303 303 302 299 297 297 296 295 295 295 295 295 293 293 292 292 292 291 290 291 292 293 292 292 293 292 291 291 290 289 290 290
285 285 291 293 292 299 297 297 297 295 294 294 301 294 290 288 284 280 282 281 283 285 284 287 284 286 287 293 297 300 301 299 300 302 303 302 302 302 301 299 298 298 297 298 298 299 299 300 301 303 304 304 304 303 303 303 302 299 297 296 296 295 295 294 294 294 293 292 291 291 291 290 290 291 291 292 293 293 292 292 292 291 291 291 290 290
289 290 292 296 292 296 296 296 299 298 296 296 296 296 290 288 291 285 285 284 283 285 284 282 285 292 293 299 298 299 298 299 299 299 298 299 300 300 299 299 299 298 298 297 298 298 299 300 301 303 304 304 304 303 303 303 301 299 298 297 296 295 295 295 294 293 292 291 291 290 290 289 290 290 292 292 293 293 293 292 291 291 291 290 290 289
286 287 291 294 294 295 296 295 297 297 287 293 293 289 292 293 293 284 280 280 280 283 282 289 287 291 296 297 299 300 299 299 298 297 298 299 301 302 301 301 301 299 299 298 298 298 299 299 300 303 304 304 303 303 303 302 300 299 298 297 296 296 295 294 294 293 293 292 290 289 289 289 289 290 291 291 291 292 292 292 292 291 290 290 289 288
288 289 289 291 291 292 292 292 296 295 296 293 288 292 292 296 296 289 284 284 284 281 284 285 285 288 288 286 295 296 296 298 299 300 300 301 301 299 301 303 303 300 299 299 299 299 299 299 299 302 304 304 304 303 303 303 302 300 299 298 297 295 294 293 293 293 292 291 290 289 289 289 289 289 291 292 291 291 291 291 291 291 289 289 289 288
295 287 289 286 289 294 293 295 296 295 295 295 293 301 292 287 285 290 286 280 280 279 282 286 287 287 290 290 295 295 295 297 299 300 300 300 301 301 302 303 301 299 298 298 297 297 297 298 298 300 302 304 304 304 303 303 302 300 299 299 298 296 295 294 293 292 292 291 290 290 289 289 289 290 290 291 291 291 290 290 290 289 289 289 288 287
295 287 287 288 291 293 295 295 288 291 295 295 295 293 295 292 289 286 287 287 286 281 279 283 285 285 295 294 295 296 298 299 300 301 300 301 302 303 304 304 302 299 298 298 297 297 297 298 298 299 301 302 303 303 303 303 302 299 299 298 298 297 295 293 293 292 291 291 290 289 289 289 290 289 290 290 290 289 290 290 289 289 288 288 287 287
291 291 285 289 291 292 288 292 290 293 289 290 292 291 291 289 291 291 290 286 286 283 282 282 282 288 296 299 297 298 299 300 301 302 304 304 304 304 305 305 303 300 299 298 298 297 297 297 297 299 300 302 304 304 303 303 302 300 299 297 297 295 294 293 293 292 291 290 289 288 288 288 288 288 290 290 290 289 289 289 289 289 288 288 287 287
290 288 286 287 288 287 292 294 292 296 296 294 292 290 292 288 286 284 283 287 285 286 282 281 281 289 297 295 300 300 301 302 303 304 304 305 305 305 304 303 302 301 299 299 298 297 297 297 297 298 299 301 302 302 302 302 301 298 297 296 296 295 294 292 292 291 290 289 288 288 288 288 288 288 289 289 289 289 289 288 288 288 288 287 287 287
296 293 289 285 289 290 292 290 288 289 292 293 294 293 295 293 292 288 282 285 284 286 285 286 282 286 298 297 300 300 300 299 299 301 302 302 303 301 300 299 300 300 300 299 297 297 296 297 297 297 298 299 300 301 301 301 300 298 297 296 295 294 293 292 291 291 291 289 288 287 287 287 287 288 288 288 288 288 288 288 288 288 287 287 286 287
294 289 287 289 291 290 291 291 290 289 293 292 293 293 294 291 292 291 289 290 287 287 285 285 281 288 295 293 295 294 294 294 294 295 300 301 301 299 300 299 298 297 296 296 296 296 296 296 296 296 296 297 299 300 300 300 299 298 297 296 295 293 293 292 291 290 289 288 288 288 287 287 287 287 287 287 288 287 288 287 287 287 287 287 286 285
289 290 290 286 285 287 288 291 291 292 293 291 292 293 295 295 296 292 287 289 286 288 288 286 281 287 298 293 294 293 295 296 297 296 295 297 299 300 300 298 297 295 295 295 294 294 294 294 294 295 296 297 298 299 300 299 298 298 297 296 295 295 293 291 291 290 289 288 286 286 286 286 286 286 286 287 287 287 287 287 286 286 286 286 285 285
292 292 289 284 281 279 279 280 283 285 288 291 293 294 294 294 294 288 287 288 284 287 288 286 286 293 294 295 295 295 296 297 299 297 295 296 298 300 301 299 298 296 296 296 295 294 293 294 295 295 295 296 297 298 299 299 298 298 297 296 297 294 292 291 291 290 290 288 287 286 285 285 285 286 286 286 286 287 287 286 286 286 286 285 285 284
290 293 292 290 287 286 288 290 293 295 291 287 290 291 291 294 295 293 291 288 285 288 287 288 290 291 294 296 294 297 295 297 297 298 299 300 300 298 298 298 298 297 296 296 295 295 294 293 293 294 295 295 296 297 298 298 298 297 297 296 295 294 293 291 290 289 289 288 287 287 286 285 286 286 286 286 286 287 286 286 285 285 285 285 284 284
290 290 292 292 292 293 295 294 293 295 290 291 290 290 292 292 291 289 288 287 290 288 285 291 293 289 292 296 296 295 295 295 297 298 298 298 300 303 303 300 295 294 295 295 294 294 293 293 294 293 294 294 295 296 296 297 297 297 297 296 295 293 292 291 290 288 288 287 287 287 286 286 286 286 286 286 286 286 286 285 285 284 284 284 283 283
290 288 294 293 291 294 295 294 293 294 294 293 292 292 291 292 291 287 288 293 293 288 286 292 295 290 293 296 298 299 300 300 301 302 303 302 302 302 300 298 298 297 296 295 295 295 294 294 294 293 293 294 294 294 295 295 296 296 296 296 294 292 292 291 290 289 288 288 287 287 287 286 286 286 286 285 286 286 285 285 284 284 283 283 283 283
292 290 292 292 289 291 292 292 292 292 290 289 291 293 293 293 291 291 291 293 293 292 294 294 294 295 296 298 298 300 302 301 302 303 303 301 300 302 302 301 300 299 297 295 296 296 295 295 294 293 293 293 293 294 294 294 294 295 295 295 294 292 291 290 290 289 288 288 288 287 286 285 285 285 286 285 285 285 285 284 283 283 283 282 282 282
293 289 292 289 288 288 290 291 289 289 289 287 290 291 292 293 293 293 293 293 294 293 294 294 293 293 298 300 300 301 301 302 301 301 301 302 303 302 302 302 301 299 298 297 297 296 296 295 294 293 292 292 293 293 294 294 294 294 295 295 295 293 291 290 289 289 288 287 288 287 286 284 284 284 284 285 285 285 284 284 283 283 283 283 282 282
291 288 289 289 287 287 289 287 287 287 287 287 288 290 290 290 288 291 289 292 291 290 292 292 289 290 297 299 301 301 300 300 299 300 301 302 303 303 302 302 302 301 300 299 298 297 295 294 293 293 292 292 293 293 293 293 293 293 293 294 295 294 291 290 289 288 288 287 287 286 285 284 284 284 284 284 285 285 284 284 283 283 283 282 282 282
289 289 288 289 286 286 289 286 285 285 286 284 285 289 292 292 292 293 294 295 294 295 290 288 289 296 298 299 298 298 299 300 300 301 301 303 304 304 303 302 303 303 302 301 300 298 296 295 294 294 293 293 293 293 294 294 293 293 293 293 294 293 290 290 289 289 288 288 287 286 285 285 284 284 284 285 285 285 284 284 283 283 283 282 282 282
288 288 288 290 285 286 287 285 287 285 279 281 293 297 296 292 290 289 290 292 295 295 293 296 296 299 299 299 298 298 299 299 300 303 305 304 303 304 304 304 304 304 304 303 302 301 299 297 295 295 295 294 294 294 295 294 294 294 294 293 292 290 290 289 289 289 288 288 287 287 286 285 284 284 285 285 285 284 284 284 283 283 283 283 282 281
288 288 288 289 286 285 287 286 284 279 281 292 296 296 299 298 295 293 294 295 295 295 295 295 296 297 299 300 300 301 302 303 303 302 303 301 301 301 302 303 304 304 303 303 303 302 301 299 297 296 295 295 294 294 294 294 294 294 293 292 290 290 290 289 289 288 288 288 287 287 286 285 285 284 284 284 285 284 284 283 283 283 283 282 282 281
287 287 287 285 287 287 284 284 278 280 288 290 293 292 291 296 295 295 292 295 297 296 296 294 296 298 299 300 301 302 302 302 302 302 300 299 301 302 301 302 303 303 303 303 302 303 302 300 298 297 296 296 295 293 293 293 293 292 292 292 291 289 289 289 289 289 288 288 289 288 287 285 285 284 285 284 284 283 283 283 283 282 282 282 282 282
292 289 287 285 288 282 285 284 284 290 288 290 292 292 293 292 293 292 288 292 297 298 297 296 297 298 298 300 301 301 301 301 299 300 299 301 302 302 303 302 304 304 305 305 303 303 303 302 300 299 297 295 294 293 292 293 292 292 291 290 290 289 289 289 289 290 289 290 290 287 287 286 285 284 283 283 283 283 283 282 282 282 282 281 282 281
295 287 288 285 284 287 284 283 284 283 280 287 295 297 299 300 300 299 294 290 299 300 300 298 297 298 299 299 299 300 301 295 294 296 301 301 302 303 303 303 303 303 303 303 303 301 300 300 299 297 297 294 293 292 292 292 291 291 290 289 289 288 288 288 289 289 290 290 290 288 287 286 285 284 283 283 282 282 283 283 283 282 282 281 281 280
293 294 290 287 285 285 283 281 282 280 284 291 293 294 298 298 300 297 292 288 294 294 299 299 297 297 298 298 298 298 295 291 292 297 302 303 302 302 301 301 302 302 302 302 301 300 298 297 296 294 293 293 291 291 291 291 290 289 289 289 288 288 288 287 288 289 290 290 290 288 287 286 285 284 284 283 283 283 283 282 282 282 282 281 281 280
288 288 288 284 284 285 284 282 281 286 286 289 290 290 291 290 297 293 283 285 291 294 297 296 295 296 296 297 298 295 293 291 294 299 300 299 300 300 300 300 300 300 299 298 297 295 295 294 292 291 291 291 291 291 290 290 289 288 288 288 288 287 287 288 288 289 291 290 289 288 286 286 285 285 284 284 283 283 283 283 282 282 281 280 280 280
285 285 286 282 284 285 285 284 286 286 293 291 290 289 291 294 295 286 282 291 293 294 292 296 296 297 298 297 297 293 296 299 301 301 293 294 295 296 294 294 294 293 293 293 293 290 292 291 292 292 291 291 291 290 289 289 288 288 288 288 287 286 287 288 289 289 289 289 288 287 286 286 285 285 285 284 284 283 283 283 282 281 280 280 280 280
285 286 286 286 284 283 285 283 283 287 291 292 291 293 294 293 285 285 292 293 294 292 293 295 297 297 298 297 297 298 300 301 300 301 298 297 296 296 296 292 291 291 290 288 288 289 290 290 290 290 290 289 289 288 288 288 287 287 287 287 286 287 288 288 289 288 288 287 287 286 286 285 285 285 285 284 284 283 283 283 282 281 280 279 279 278
286 284 282 284 286 286 286 283 282 278 288 292 291 291 292 289 291 297 295 290 291 293 293 293 296 298 298 297 298 298 299 299 299 298 297 297 296 296 296 294 292 292 292 291 289 288 289 289 289 289 289 288 287 287 287 286 286 286 286 286 286 288 288 288 288 288 287 286 286 285 285 285 285 285 284 283 283 283 281 281 280 279 278 278 278 277
291 285 285 286 289 283 283 280 282 290 293 294 295 291 292 295 300 298 298 295 293 291 294 295 294 297 297 297 297 296 296 296 296 296 296 296 295 293 291 290 289 289 289 289 289 289 287 289 289 288 287 286 287 287 287 286 285 285 285 285 287 287 287 287 287 287 286 285 285 284 284 284 284 284 284 283 282 281 280 279 279 278 278 278 277 277
290 288 291 287 290 287 286 288 293 291 293 295 299 300 300 300 301 299 298 298 297 294 291 293 295 295 295 295 296 295 294 294 295 296 296 296 295 293 291 291 290 289 289 289 288 287 286 288 287 287 285 285 285 286 286 286 285 285 284 286 286 286 286 285 285 285 285 284 284 284 284 284 284 283 283 282 281 280 279 278 278 277 277 277 277 277
292 294 291 290 288 292 293 294 295 293 292 294 297 299 299 300 298 294 294 295 294 294 291 293 294 293 292 292 293 294 294 295 295 295 294 294 293 292 290 288 287 287 287 287 286 285 286 286 286 285 284 284 285 285 285 286 286 284 285 285 285 285 285 284 284 284 284 284 284 283 283 282 282 282 281 281 282 281 279 278 278 278 277 277 277 277
288 288 289 289 289 289 285 295 293 293 293 293 295 297 297 294 292 291 292 293 293 291 289 289 290 291 291 290 291 293 293 294 293 293 293 293 292 291 290 288 288 287 287 286 286 285 284 284 284 283 283 282 284 285 285 285 285 285 285 283 284 285 284 284 284 283 283 283 283 282 282 281 281 280 280 280 281 281 279 279 279 278 276 277 277 277
287 291 289 289 288 287 288 292 293 291 289 291 292 293 294 296 295 292 291 291 291 290 289 290 289 289 290 289 290 291 292 293 292 293 293 292 291 290 289 287 287 286 286 286 285 284 284 284 284 283 282 282 283 284 284 284 284 284 283 283 283 284 283 283 283 283 282 281 281 280 280 280 275 278 279 279 280 280 279 279 279 279 277 277 278 277
287 289 285 287 286 289 292 292 293 293 292 292 290 289 292 294 294 294 293 292 291 291 292 291 289 290 291 291 292 291 290 291 292 292 291 291 290 288 287 286 286 286 285 284 283 283 284 284 283 283 282 282 283 283 283 283 282 282 282 282 282 283 283 282 280 281 280 279 279 279 278 279 278 279 279 279 279 280 280 279 279 279 278 279 280 279
287 285 288 286 284 284 286 290 292 288 289 292 291 293 292 291 291 292 292 291 290 289 290 291 292 289 288 289 290 290 289 290 292 291 289 289 289 288 286 284 284 283 283 283 282 283 283 283 283 282 282 281 281 281 281 280 280 281 281 281 281 282 281 280 279 278 277 278 277 277 278 277 278 278 278 278 278 276 274 273 278 278 279 277 277 278
288 288 289 285 284 284 290 292 293 292 292 294 296 297 297 296 293 291 290 290 291 291 291 291 290 291 290 288 287 288 288 289 289 289 287 287 287 286 285 284 283 282 282 282 281 282 282 282 281 281 280 279 280 279 278 278 278 277 278 280 281 281 280 279 278 276 276 276 276 276 277 277 277 277 277 277 277 276 275 274 274 276 276 277 277 277
Wind_Speed
3 4 4 5 6 7 5 1 4 3 4 6 4 2 1 3 5 2 1 3 1 3 11 12 12 16 18 15 15 14 4 6 10 12 12 11 10 11 11 11 11 11 10 5 7 8 10 11 11 10 9 9 9 10 10 10 9 9 7 7 7 6 6 6 7 6 6 6 5 4 5 6 3 3 2 4 4 3 3 4 6 5 5 6 7 7
2 4 6 4 4 1 5 7 8 7 2 4 4 2 3 3 4 3 2 2 1 3 4 3 6 14 16 15 15 13 11 15 14 13 14 15 14 12 13 13 11 10 4 6 6 9 10 11 12 11 9 10 12 12 12 11 11 9 8 8 7 6 7 6 6 7 6 5 4 5 5 7 6 4 3 4 3 4 3 3 4 5 5 6 6 7
4 6 2 5 5 8 7 4 2 4 6 3 2 2 2 4 5 1 2 1 1 2 10 8 9 14 16 16 17 17 16 15 14 14 16 14 14 13 11 12 10 7 8 8 8 9 10 12 13 11 10 10 11 12 12 12 11 9 8 7 7 7 7 6 6 6 5 4 4 4 4 4 5 3 3 3 4 4 4 3 3 3 4 4 5 6
4 6 3 6 6 9 5 2 5 5 2 4 3 3 4 2 1 2 3 2 3 3 5 7 13 15 16 17 21 19 15 15 12 12 15 14 17 18 15 8 8 11 9 10 11 11 11 12 12 11 11 10 11 11 11 12 12 8 8 8 8 7 7 7 5 4 6 7 8 7 7 5 4 3 4 5 5 4 4 4 3 3 3 3 4 5
3 3 1 6 2 5 7 5 7 6 5 2 5 4 2 2 3 4 2 2 4 1 1 10 12 12 8 8 6 5 6 9 14 10 15 16 16 16 7 7 8 11 9 9 10 11 12 13 14 14 11 10 12 12 13 13 12 6 9 9 9 8 8 6 6 7 8 9 8 7 8 7 7 5 4 5 3 3 3 4 4 4 3 4 4 5
4 4 7 6 3 3 7 5 7 6 5 4 6 8 5 2 3 1 3 7 5 2 3 5 8 3 1 4 6 4 2 4 5 7 13 15 13 8 12 15 11 9 8 9 12 13 14 14 13 13 13 13 13 13 13 12 11 9 9 9 9 7 7 7 9 9 8 8 9 8 7 6 4 5 6 7 8 7 6 5 4 4 3 3 5 5
1 2 4 7 7 4 4 4 4 5 5 3 3 6 5 2 2 1 0 1 3 3 2 3 4 11 4 8 7 6 3 8 6 8 14 11 5 5 8 8 8 9 9 9 9 11 13 14 14 15 14 13 13 13 12 11 10 10 9 9 9 8 7 7 9 10 7 7 7 9 10 10 11 10 6 4 5 5 5 5 6 5 4 3 5 5
5 3 4 4 7 6 5 5 7 11 4 4 2 2 5 5 5 3 3 4 5 3 3 2 3 7 15 4 3 1 2 8 11 15 14 9 3 4 6 7 7 7 8 8 10 11 12 13 14 15 14 14 13 12 13 10 9 11 11 10 9 7 7 7 9 10 8 8 8 8 7 6 6 6 8 8 6 4 5 6 6 5 4 3 5 5
5 7 8 8 4 4 7 2 3 10 5 1 1 1 5 3 2 4 1 1 1 5 5 3 2 3 9 1 3 2 3 7 14 15 14 7 2 3 6 3 3 4 5 7 8 10 11 13 13 13 14 13 12 12 12 12 10 10 9 9 9 8 7 7 9 9 8 6 7 7 7 7 4 5 5 6 6 5 5 6 5 5 5 4 5 5
2 1 6 4 7 7 3 3 2 5 6 1 4 7 6 6 5 1 2 0 1 2 7 7 7 4 15 7 7 2 4 9 10 12 11 3 4 6 4 1 1 2 3 5 7 8 9 10 11 11 11 12 12 12 12 12 10 9 8 9 10 9 7 7 8 7 8 5 3 3 5 6 6 6 6 6 7 6 6 6 6 6 5 5 5 5
1 1 3 2 5 2 6 6 2 4 4 12 7 8 5 5 3 3 3 0 0 6 5 10 11 5 8 4 8 8 7 7 6 6 4 2 3 2 1 1 1 3 4 4 5 5 6 7 9 11 12 12 12 12 12 12 9 8 8 10 11 10 7 8 9 9 8 6 5 5 6 7 9 9 9 8 8 7 7 7 6 6 5 5 6 5
2 2 3 0 2 4 4 8 7 3 5 5 3 4 4 2 2 1 1 0 2 6 4 5 2 3 8 5 4 2 2 3 4 6 6 4 2 1 1 0 1 2 2 4 5 5 7 8 9 11 12 13 13 13 13 13 9 9 9 9 11 9 9 9 9 9 9 7 6 5 6 6 7 11 10 10 11 11 11 10 8 6 6 6 5 5
4 5 2 2 3 3 5 8 5 3 2 2 5 5 5 2 0 2 2 4 6 6 2 3 1 4 18 14 6 8 10 9 8 9 7 6 4 2 3 2 1 2 3 4 5 6 7 9 11 12 13 14 15 14 15 14 11 9 9 11 11 10 10 10 10 10 10 7 6 6 7 6 6 7 8 10 9 9 10 9 8 8 7 7 6 6
3 4 3 4 3 6 7 9 5 3 7 5 10 9 5 4 4 7 2 2 4 2 1 3 3 9 11 12 15 21 22 16 10 10 9 8 7 4 3 2 2 2 3 4 5 6 8 9 10 12 13 14 14 15 15 15 12 10 9 12 12 11 10 10 10 10 9 7 6 6 7 6 6 6 6 7 9 9 7 8 9 9 8 8 8 8
6 5 8 12 5 9 10 7 6 4 12 11 1 9 5 5 3 4 3 5 3 1 2 3 1 6 1 3 3 5 8 6 4 5 4 7 7 6 4 3 4 4 4 5 6 7 9 10 12 12 13 13 14 15 15 15 14 11 11 11 12 11 11 11 11 9 9 7 6 5 4 5 7 5 5 5 6 8 9 8 9 8 7 7 7 7
9 4 3 2 2 4 12 0 2 7 4 1 1 4 1 8 3 6 1 1 2 1 2 4 7 3 7 5 6 4 6 7 3 5 4 9 9 7 7 9 8 6 5 6 6 7 9 10 11 11 12 13 14 16 15 16 14 12 12 13 13 12 12 12 11 10 9 8 6 7 6 7 6 5 5 5 5 6 7 9 9 9 8 7 7 6
4 6 3 1 2 5 3 2 1 2 8 7 6 6 3 5 3 5 1 4 2 0 10 3 8 9 8 17 16 18 14 10 4 4 5 10 10 5 9 10 9 7 6 7 7 8 9 9 11 11 12 12 14 15 16 17 14 14 13 13 14 12 11 12 11 11 11 9 9 8 8 8 7 7 9 8 10 8 7 7 8 8 8 8 7 7
3 1 2 2 7 1 2 2 2 4 1 8 6 6 3 0 4 3 6 1 2 7 6 3 8 13 1 12 6 4 6 12 9 10 9 9 5 6 10 10 5 6 8 8 8 7 8 10 12 12 12 14 14 15 16 17 15 13 12 14 14 12 13 11 11 11 11 10 9 9 10 9 10 8 8 7 9 8 8 7 6 7 8 8 7 7
2 4 2 3 3 1 1 2 2 3 4 2 1 3 6 4 4 4 1 6 4 4 5 5 5 11 11 15 3 2 3 5 11 14 11 12 11 11 11 9 4 5 6 7 8 8 9 10 11 13 13 13 14 15 15 15 15 12 12 13 13 14 14 13 10 9 7 9 6 7 10 11 10 9 8 7 7 8 9 9 8 8 8 8 8 7
1 7 2 1 2 2 1 6 10 7 1 2 1 2 4 3 2 7 5 1 1 5 1 5 2 12 9 6 5 10 9 10 10 6 10 14 13 11 10 5 4 5 7 8 8 8 9 10 12 13 13 14 15 15 14 15 15 14 13 13 12 12 11 11 11 10 10 10 8 7 7 8 8 9 9 8 9 8 8 8 9 9 9 9 8 8
4 1 6 4 4 2 6 9 11 12 10 5 6 7 3 1 3 2 1 2 2 2 3 4 9 12 4 9 8 9 11 10 9 9 8 9 10 11 11 5 5 6 5 6 7 8 9 10 10 11 11 11 12 12 13 15 16 14 12 13 13 13 12 12 11 11 10 8 8 10 10 9 9 9 8 9 9 9 9 8 8 8 8 9 8 9
2 3 7 5 3 9 4 3 3 3 7 9 14 13 15 10 7 6 6 2 1 3 5 3 12 14 2 2 8 6 8 8 9 11 8 8 10 5 2 2 2 5 7 6 6 6 8 9 10 10 10 10 11 13 16 16 14 12 12 12 12 12 11 11 10 10 10 9 8 11 10 10 9 9 8 10 10 9 9 8 8 8 8 9 9 9
5 2 2 5 7 5 2 2 2 2 3 2 2 4 8 6 6 6 7 5 0 4 4 2 4 18 0 3 3 3 3 4 4 3 7 8 6 3 3 1 5 6 3 6 7 7 7 8 10 11 13 13 14 15 16 14 14 13 14 13 11 11 11 11 10 10 10 10 10 10 8 8 9 9 11 11 10 10 9 8 8 8 9 9 9 8
5 3 4 5 3 1 2 1 1 1 1 1 2 0 7 12 14 12 5 3 6 5 4 5 4 14 3 2 1 1 1 2 2 5 7 5 3 4 5 4 4 3 5 3 2 5 6 8 9 9 12 13 13 15 17 14 13 13 14 14 12 13 13 12 9 9 9 8 9 11 10 10 9 11 11 11 10 11 10 9 8 8 9 9 8 9
6 3 7 4 3 2 3 2 3 2 2 5 4 7 12 11 10 3 3 1 4 12 13 8 10 16 2 1 1 1 2 4 4 4 4 7 5 4 5 3 3 3 3 4 5 6 7 8 11 11 12 13 13 13 14 14 14 14 14 14 15 13 12 11 10 11 11 10 10 9 10 10 10 11 12 11 9 12 11 10 9 9 9 9 9 9
6 7 10 9 11 10 8 10 11 7 10 8 6 9 9 12 13 5 6 7 7 14 10 8 13 17 6 2 3 1 2 4 4 4 3 6 8 5 4 2 2 4 6 6 6 7 10 10 9 10 12 11 13 13 14 14 14 14 14 15 14 13 13 12 10 11 12 12 13 11 12 11 11 12 13 12 11 12 11 10 10 10 9 10 10 10
2 3 10 12 13 14 13 3 3 12 7 8 10 14 15 16 16 15 7 8 15 3 5 16 21 22 14 6 3 5 1 5 4 2 4 5 6 6 5 4 3 3 4 7 7 7 6 9 13 12 12 12 13 14 13 14 15 14 14 15 13 12 13 12 12 12 12 12 13 12 14 13 13 12 13 12 11 11 11 10 11 11 10 10 10 10
1 3 10 15 18 17 13 9 8 15 14 16 11 15 16 15 18 15 15 21 8 4 16 20 16 14 24 16 7 3 5 4 7 7 9 9 7 6 5 3 4 5 7 5 6 9 12 12 10 12 13 13 13 13 12 13 13 14 15 15 14 13 12 10 12 13 13 12 12 12 13 13 13 13 12 11 11 11 11 11 11 11 9 9 10 10
5 8 12 14 17 19 20 8 12 9 10 9 16 15 17 19 18 20 23 21 13 13 19 23 9 15 21 21 7 8 5 8 8 7 8 7 5 5 5 7 7 8 8 9 11 11 11 13 12 12 12 13 13 15 16 13 13 14 13 13 12 12 14 12 13 14 14 13 14 13 12 11 10 10 11 10 10 12 12 12 11 11 10 10 10 8
4 7 10 13 15 18 20 10 8 12 6 3 9 13 16 19 23 24 22 20 19 17 16 18 14 15 19 12 5 6 7 11 10 8 7 7 10 12 10 10 10 11 10 11 12 12 13 12 9 11 11 12 15 15 15 15 15 16 15 15 13 13 12 13 14 14 15 15 14 12 12 10 9 11 12 12 12 12 12 11 10 10 11 11 10 10
7 11 12 4 8 15 17 5 6 7 5 5 7 9 13 17 19 20 15 12 14 16 21 14 11 18 19 2 7 5 6 5 8 11 14 15 13 10 12 13 12 12 11 11 11 11 10 9 9 10 12 15 15 17 16 16 15 14 14 15 15 15 14 14 14 14 13 14 13 12 11 10 10 11 13 12 11 12 11 11 10 10 10 10 10 11
6 3 3 3 7 12 12 6 6 5 6 7 9 14 17 17 16 10 11 17 13 17 14 7 17 22 9 8 5 6 4 10 13 14 14 14 14 11 13 13 12 12 12 12 12 10 7 10 12 14 16 17 16 16 15 15 14 15 17 15 15 14 14 14 14 15 14 12 12 13 12 10 11 12 12 11 11 11 8 9 9 9 8 10 10 10
4 3 5 5 9 13 6 11 9 7 2 7 16 24 28 14 9 9 14 14 18 16 10 16 19 20 6 3 6 6 9 13 15 14 17 16 16 16 13 12 12 14 14 13 11 10 11 13 15 16 15 13 14 15 18 15 13 16 17 15 14 10 12 15 14 14 14 13 13 14 13 12 11 10 8 8 9 8 8 8 7 7 8 9 8 8
2 3 6 2 7 9 4 9 7 6 11 17 21 12 9 14 14 16 17 17 14 14 15 17 18 17 14 11 10 13 11 13 15 17 15 13 12 14 14 12 11 12 13 12 11 12 13 11 10 11 14 14 14 14 12 14 16 14 12 12 11 13 13 14 14 13 14 13 13 13 14 12 13 14 7 9 8 8 9 9 10 9 8 6 7 7
8 5 6 2 4 8 5 7 6 15 17 16 4 1 5 9 20 24 24 16 17 19 20 21 23 23 18 15 17 18 15 17 18 20 15 5 5 7 13 15 11 12 12 13 12 13 14 14 12 11 10 12 14 12 11 12 13 10 12 13 13 14 14 15 15 14 14 14 14 13 13 13 12 13 11 10 8 10 10 10 9 9 7 8 9 10
9 11 4 2 3 1 3 9 9 11 5 4 8 3 2 5 8 12 14 17 19 20 22 24 26 24 17 17 18 17 18 23 21 15 3 3 11 16 13 13 12 13 13 11 12 15 13 14 14 14 15 12 9 10 12 14 13 13 14 13 15 14 15 15 15 14 14 14 15 15 12 13 14 12 7 8 10 12 11 11 13 13 10 8 7 5
10 5 4 6 7 9 5 10 13 6 12 12 13 9 10 10 11 13 13 16 18 19 20 19 22 20 19 19 21 21 18 14 14 9 8 15 21 19 14 14 13 14 12 11 11 13 12 12 14 14 10 5 9 10 12 11 12 13 12 14 14 14 14 14 15 16 16 15 13 13 13 15 12 13 12 12 13 13 14 13 12 11 9 10 9 8
13 12 8 11 7 10 10 8 5 8 14 18 14 5 12 10 14 15 12 14 17 17 17 18 19 20 20 21 20 17 2 7 14 13 11 18 17 13 14 12 14 15 15 15 11 10 9 9 8 7 7 8 10 11 9 11 13 13 13 13 13 14 14 15 16 16 15 14 15 13 16 13 13 14 14 14 15 15 12 11 10 10 10 8 10 12
14 15 12 13 6 7 9 10 9 10 11 10 0 9 10 8 12 8 5 13 9 6 14 18 18 19 18 18 18 2 3 7 13 11 15 8 8 8 11 11 12 13 14 12 10 11 8 6 5 5 6 7 10 10 10 11 13 12 13 13 13 14 14 16 14 15 15 14 13 14 12 12 13 14 15 16 15 14 13 13 13 11 10 10 9 9
12 10 8 11 8 9 10 10 8 4 8 3 4 2 2 3 10 7 7 10 3 12 12 12 14 17 16 15 11 6 8 8 11 14 4 2 3 4 6 9 8 8 9 7 5 5 4 2 5 5 8 11 11 10 13 12 13 13 13 13 12 13 15 15 14 13 11 9 10 12 10 12 14 14 14 14 13 12 12 10 8 8 8 8 7 7
6 5 7 13 12 14 13 7 4 5 6 3 3 2 4 4 7 8 12 6 4 8 5 11 14 14 14 12 6 6 11 16 15 7 5 1 2 3 3 3 6 4 6 6 5 2 3 4 7 8 10 7 8 9 10 11 11 12 13 11 12 14 13 10 10 9 8 8 11 11 12 10 12 13 12 12 12 11 10 8 8 8 10 9 7 6
7 6 4 5 10 12 10 11 8 6 5 6 0 11 11 6 6 14 5 1 7 6 7 9 13 13 11 12 8 10 13 14 13 9 7 6 7 6 6 3 3 3 2 3 4 5 4 4 5 4 3 4 7 8 9 9 12 11 10 11 13 13 10 10 10 9 9 10 12 11 11 11 10 10 10 9 9 9 7 7 8 9 9 7 8 10
9 9 8 9 6 4 6 9 6 8 5 12 12 3 3 8 7 4 2 1 1 5 8 8 9 11 9 10 12 12 13 10 8 8 9 9 8 9 7 5 5 5 5 4 4 5 5 4 5 6 6 5 8 9 7 12 13 11 10 10 11 9 9 10 9 9 7 10 11 10 11 10 11 11 9 9 10 11 10 8 8 8 8 8 8 9
10 5 3 8 7 6 9 9 8 8 3 13 18 11 9 14 7 4 2 2 5 5 6 5 9 10 10 12 11 10 8 9 10 11 10 10 11 10 5 5 6 5 6 4 4 3 3 5 4 4 4 5 7 6 8 12 12 11 10 9 9 8 7 8 7 9 10 10 10 10 10 10 10 9 8 10 10 10 10 9 9 7 6 8 7 6
9 11 10 8 7 9 7 10 8 3 11 15 14 11 14 18 17 12 8 8 4 5 5 3 7 9 9 10 8 5 4 7 11 10 8 9 6 6 6 6 6 6 5 5 4 3 3 6 6 5 4 5 5 5 8 8 11 11 12 8 9 7 8 10 10 10 10 9 9 8 8 8 7 7 8 9 10 9 8 10 9 7 6 6 6 6
5 12 4 6 5 5 8 4 1 1 2 8 10 6 4 7 6 4 3 7 6 5 4 6 4 3 4 5 6 6 8 8 7 7 8 8 8 8 5 4 4 4 4 3 3 4 4 3 3 5 6 5 5 7 6 6 8 12 8 8 8 9 9 10 11 11 11 10 9 10 10 10 8 9 9 9 6 7 5 8 8 7 7 7 6 6
3 2 1 5 0 7 9 10 12 9 4 6 10 9 4 3 1 5 6 4 7 8 7 7 4 2 2 4 6 7 7 7 8 8 8 8 10 11 9 6 6 5 5 6 5 5 4 6 6 7 7 7 5 6 5 6 5 6 5 9 7 9 10 11 11 11 9 9 8 9 10 11 7 7 6 6 5 5 6 6 6 7 7 7 7 7
2 2 3 3 3 7 5 2 3 4 1 4 4 6 9 9 4 2 5 6 6 7 6 7 3 7 4 5 9 9 12 11 10 11 10 9 10 9 8 6 5 4 5 4 4 5 4 7 7 7 7 6 6 5 5 6 5 6 7 7 9 10 11 11 11 11 10 11 9 6 8 9 11 10 6 6 6 6 6 6 6 7 8 9 9 8
1 6 2 1 1 6 10 10 11 6 5 5 3 6 8 8 7 8 7 6 7 9 10 8 8 9 7 10 7 6 10 14 11 11 12 11 8 8 8 5 5 5 4 4 4 7 6 6 6 7 7 5 4 5 6 6 6 7 8 8 8 11 11 10 10 10 9 9 8 8 7 6 7 6 6 6 5 3 3 7 7 6 4 1 3 6
1 8 4 5 7 7 5 6 1 5 8 4 4 7 9 10 10 10 10 9 9 10 11 11 12 8 9 10 8 7 10 13 11 5 8 9 9 9 6 4 4 5 4 3 3 4 5 5 7 8 7 5 5 5 6 7 6 6 6 8 8 10 11 10 9 9 9 8 8 8 7 6 6 6 6 6 6 6 4 7 6 3 2 4 2 1
10 9 6 6 6 8 10 11 9 10 10 13 12 10 11 5 2 6 9 10 11 10 10 10 11 13 11 11 8 8 11 11 12 5 8 10 10 6 5 6 7 5 5 5 7 6 6 6 7 7 8 5 5 6 6 7 6 6 5 6 7 8 10 10 8 8 8 7 6 7 7 6 6 5 6 5 6 6 6 5 4 5 6 5 5 4
Wind_Direction
318 176 193 200 219 185 178 159 76 97 83 86 85 153 238 260 270 112 179 39 263 280 251 250 253 264 270 269 267 266 213 233 249 254 251 244 240 240 238 233 225 223 229 147 168 171 181 184 188 187 185 188 188 195 191 189 183 182 165 161 160 159 152 152 148 149 147 142 121 109 130 124 114 116 115 99 108 104 97 114 120 128 135 133 126 125
251 222 222 229 44 145 132 121 113 93 35 144 140 201 207 195 276 84 88 86 130 256 282 173 262 266 267 271 266 261 248 255 250 248 247 248 241 242 239 238 228 229 143 145 177 181 181 188 189 186 187 188 190 197 191 193 191 186 172 170 160 160 167 166 163 153 156 159 163 153 147 136 136 145 136 124 116 105 102 89 99 117 122 134 132 133
202 212 199 83 104 90 96 109 116 137 131 112 217 152 279 240 278 250 16 117 143 193 268 289 278 270 266 263 265 256 245 244 241 241 256 260 253 244 237 235 234 203 211 183 196 181 188 190 190 189 190 191 195 194 193 195 193 182 172 175 165 170 170 166 157 161 149 127 93 106 120 119 108 47 53 88 98 105 105 91 80 87 109 124 127 132
217 232 103 130 131 110 85 107 129 105 113 161 144 179 234 42 316 262 126 78 143 242 315 320 294 277 270 253 251 257 256 256 248 243 250 249 254 255 250 241 225 230 212 196 190 188 188 190 192 192 192 190 194 195 195 194 195 182 181 174 172 169 171 164 152 111 103 98 94 80 87 74 65 117 89 87 83 93 116 107 90 84 96 117 129 130
198 58 66 144 160 148 140 160 166 173 195 231 221 215 240 163 210 255 358 300 161 94 255 281 269 261 236 265 264 252 258 262 262 253 254 252 246 252 278 286 252 245 213 198 188 187 185 190 196 194 189 184 196 197 197 194 192 182 182 173 173 172 169 161 143 133 126 118 105 99 86 85 94 92 107 108 113 133 129 120 121 112 105 126 125 123
234 105 138 130 116 92 124 162 199 184 224 187 233 223 236 136 217 221 330 331 283 234 75 348 320 271 163 248 255 256 254 254 240 245 250 247 247 239 247 251 246 223 222 208 195 189 187 191 190 192 186 190 197 199 199 194 189 179 180 176 174 166 163 158 155 150 151 151 142 140 134 138 139 147 159 167 167 169 165 149 120 107 115 127 121 127
230 109 197 161 158 148 179 192 190 213 220 215 218 208 223 139 65 136 171 285 271 279 90 319 349 291 185 223 220 227 231 266 268 245 257 252 214 214 236 244 234 226 212 212 206 183 185 189 188 191 189 191 198 200 195 191 181 180 177 178 171 165 164 161 162 163 160 155 167 168 166 166 168 164 174 147 143 151 132 130 136 126 125 130 125 121
130 148 116 124 136 161 166 212 196 191 191 215 60 145 152 177 194 200 202 220 278 337 279 146 212 289 300 212 197 350 314 281 279 269 264 259 162 221 238 233 230 221 213 196 199 192 189 185 188 189 187 192 198 194 192 185 176 183 180 172 171 167 166 163 165 172 176 167 174 176 168 168 165 167 153 149 134 110 131 134 132 134 129 126 117 120
176 154 180 157 173 167 201 178 94 185 199 35 62 202 138 148 143 144 175 176 352 354 286 128 139 267 264 172 41 157 153 237 243 255 264 269 125 253 252 245 234 228 217 202 190 191 186 187 190 189 186 188 192 194 194 193 182 180 173 167 168 169 167 165 171 174 183 191 184 177 165 161 132 107 113 116 119 132 144 134 131 131 132 122 100 103
355 204 202 174 165 202 94 16 250 194 183 187 131 95 92 90 76 89 124 95 235 295 265 142 172 262 281 248 142 65 234 243 246 247 256 329 307 287 276 228 209 213 209 207 208 189 185 186 186 187 180 182 193 195 194 195 179 168 163 166 170 170 169 169 172 178 184 191 187 173 172 143 126 127 125 136 144 147 150 137 141 136 140 127 113 100
358 273 334 201 218 74 114 54 36 26 47 130 181 105 89 75 90 89 58 323 301 247 255 152 181 231 284 259 154 154 196 217 226 261 289 312 272 287 319 254 212 201 189 191 189 180 173 176 177 180 183 184 190 194 194 194 177 156 169 173 177 175 168 171 174 179 182 183 193 185 176 157 146 146 147 147 152 152 155 149 152 151 136 126 118 121
133 79 180 35 52 119 107 87 46 66 124 158 154 137 131 135 142 157 111 107 231 260 92 340 182 229 221 272 180 173 356 267 244 261 270 286 289 6 38 127 212 216 185 166 170 163 160 162 175 183 188 188 194 195 194 195 174 166 172 175 178 173 173 173 175 180 186 188 193 184 165 165 167 157 160 163 164 167 161 156 154 144 134 123 123 128
245 206 98 80 268 154 149 104 72 82 259 225 149 154 193 210 52 226 172 217 190 242 103 8 198 289 238 248 347 290 272 256 218 237 259 265 271 202 192 201 195 207 189 172 171 166 173 180 182 188 191 192 198 198 196 194 183 170 176 177 177 178 176 176 176 184 188 184 185 172 169 176 176 178 166 160 161 168 159 155 151 151 147 139 144 152
231 85 162 146 128 243 199 163 143 175 202 197 183 172 182 220 215 255 191 343 320 286 40 36 130 249 293 302 246 251 250 246 219 229 241 256 258 250 224 208 206 196 197 185 177 180 180 183 187 190 192 195 200 199 198 195 187 175 177 182 183 180 177 177 182 186 184 186 180 174 174 174 178 183 174 164 163 168 160 155 152 156 154 158 159 154
226 228 207 152 220 151 211 226 181 158 165 201 37 184 212 185 184 218 175 231 244 7 80 274 163 243 215 182 30 268 309 347 310 280 236 254 261 257 268 250 232 213 198 190 190 190 189 189 188 188 191 195 200 199 199 197 194 174 180 183 184 176 178 178 182 182 184 182 173 163 153 158 180 191 179 169 171 167 156 154 152 150 151 154 149 149
230 283 50 346 348 145 190 319 70 96 96 135 291 29 294 230 63 259 17 334 28 336 213 179 229 249 230 14 291 257 279 283 257 263 267 264 248 227 252 243 220 197 185 186 197 199 200 194 190 190 193 194 201 201 199 198 195 182 185 186 185 179 179 182 182 184 180 179 174 163 166 176 181 188 180 171 171 168 160 157 156 149 150 144 139 127
66 233 54 311 104 177 176 32 151 250 208 170 138 214 195 353 103 96 127 76 115 227 254 165 263 252 278 275 240 236 215 240 230 257 247 247 250 221 245 246 221 183 178 190 197 203 197 190 195 197 194 194 200 202 202 201 192 186 185 185 187 184 179 183 183 184 185 178 168 172 174 180 183 191 188 182 176 168 158 161 154 148 144 134 139 137
197 138 18 115 193 4 34 301 61 31 341 109 216 196 102 329 2 179 244 137 201 245 271 105 253 279 349 285 70 41 213 224 233 246 237 245 248 241 244 243 199 180 196 201 205 205 194 191 194 196 199 197 198 200 203 204 197 191 189 185 185 180 181 185 182 185 183 173 167 168 178 184 190 193 195 184 172 165 161 160 150 138 140 152 142 140
179 238 130 344 354 39 142 211 120 62 4 306 13 130 182 198 204 179 213 234 207 233 273 245 264 267 226 251 124 95 171 198 229 233 234 247 242 235 247 243 132 170 188 201 205 197 194 196 196 198 200 199 199 198 202 203 199 191 189 188 190 187 186 183 183 183 174 172 165 168 179 180 185 191 193 184 170 164 167 164 160 155 147 135 138 141
186 228 182 310 153 49 225 180 206 162 29 51 106 172 8 308 256 162 205 344 239 267 99 266 176 270 222 208 177 224 206 226 220 209 225 232 239 237 240 234 163 193 205 198 198 199 199 199 198 197 196 198 198 199 199 200 201 196 188 185 189 185 181 178 181 180 179 179 173 172 173 181 183 184 187 181 170 172 174 169 161 155 146 148 147 149
185 77 249 96 299 171 186 197 214 162 175 174 198 195 159 208 341 339 21 205 226 231 229 285 285 254 232 145 173 196 195 211 202 216 229 227 227 236 237 199 181 194 206 207 198 196 196 196 196 196 197 197 197 197 202 203 204 197 187 190 188 183 178 179 181 179 180 170 173 173 179 177 176 179 182 178 179 176 173 168 165 160 152 145 154 153
179 166 218 125 179 216 211 27 337 237 198 186 188 194 186 149 174 175 223 90 234 212 228 181 249 272 183 36 162 187 188 199 207 205 224 246 238 244 15 335 228 187 194 203 208 198 193 191 189 190 191 194 195 200 203 201 197 184 187 189 188 187 183 177 178 177 173 173 172 179 178 180 179 178 176 176 176 180 175 169 167 156 147 157 155 161
179 109 115 189 211 203 60 14 226 302 360 42 275 234 169 187 180 191 223 191 87 238 10 265 355 267 120 167 196 149 224 181 301 241 212 246 277 290 167 174 295 290 232 187 188 194 196 190 186 187 189 191 196 200 204 198 194 190 189 187 187 183 184 180 178 176 175 174 174 180 179 171 175 174 177 178 179 182 174 169 164 158 161 163 157 162
96 173 197 235 67 45 125 187 154 216 256 266 237 18 178 196 195 203 227 147 187 139 221 217 209 268 104 293 295 344 328 326 254 268 257 245 232 291 279 152 172 235 291 298 206 200 200 188 181 183 189 195 196 198 203 199 194 192 190 188 182 188 181 179 175 175 174 170 171 174 174 177 174 176 179 180 182 180 173 169 167 164 169 164 160 162
173 205 211 197 232 188 195 196 194 115 203 233 202 192 207 204 196 36 77 115 239 209 212 168 235 262 118 53 357 279 298 264 239 228 242 278 264 226 243 202 160 192 232 226 219 221 210 193 192 194 193 194 194 196 198 197 195 195 193 187 191 187 179 173 170 174 176 174 176 177 179 181 177 178 182 183 181 179 173 173 167 169 172 165 165 165
191 155 173 203 209 218 209 208 204 177 193 205 227 203 196 191 186 146 219 207 226 239 194 217 244 251 104 203 175 235 278 274 242 243 235 234 268 260 226 249 213 193 207 201 206 211 217 211 201 197 196 194 195 194 196 198 197 197 195 193 189 176 174 177 173 177 175 179 181 183 183 178 179 183 183 181 181 180 175 173 170 170 173 171 166 163
174 188 195 196 212 225 234 251 50 118 124 188 207 178 194 207 198 198 212 212 222 219 181 221 229 258 262 179 168 189 245 245 260 255 253 254 248 239 249 249 242 237 220 214 206 214 232 226 213 204 198 196 194 194 197 197 197 197 197 194 188 183 177 176 172 176 180 182 185 181 185 183 184 183 181 181 181 177 173 173 173 174 174 173 170 167
79 211 214 221 226 241 250 239 177 154 178 202 189 192 197 189 199 197 206 225 202 68 247 239 225 245 260 244 184 177 220 252 258 262 271 262 250 244 227 209 217 240 248 237 213 213 219 226 220 206 201 200 200 197 199 201 200 196 196 195 188 179 178 173 172 177 182 181 186 186 184 184 181 181 180 180 178 175 172 171 173 175 168 166 170 173
183 217 213 216 231 239 242 214 167 194 193 190 200 191 192 199 198 203 219 228 192 206 234 248 191 223 252 258 187 215 194 233 226 233 240 247 284 266 223 207 224 230 225 215 225 217 217 219 214 202 201 204 201 201 201 200 201 200 200 198 183 179 185 174 174 178 182 187 192 189 180 173 172 174 177 174 174 176 176 176 174 170 166 170 174 173
178 237 217 208 225 235 239 212 161 183 189 167 217 214 203 195 201 207 219 218 213 226 250 263 252 234 246 259 119 225 195 233 246 239 243 241 235 234 236 228 229 229 220 221 220 220 218 217 207 202 200 205 205 203 200 202 203 201 198 196 187 184 182 172 184 182 183 187 192 183 175 170 164 176 178 179 181 182 178 174 168 167 169 174 174 171
196 223 211 184 222 237 241 200 158 186 168 217 216 221 218 213 211 208 216 228 224 248 248 260 295 276 263 119 260 192 215 207 242 244 243 243 244 235 235 227 226 228 230 227 233 225 215 206 209 205 205 210 207 205 202 203 200 198 200 199 193 185 181 176 184 186 184 186 183 174 172 172 173 177 181 182 179 180 175 172 167 169 171 170 170 171
190 251 51 151 218 240 237 158 174 158 202 233 237 228 224 210 215 197 222 221 206 223 241 281 259 254 259 124 258 254 193 222 227 229 239 249 251 235 235 233 230 230 230 229 223 219 201 208 210 209 211 211 208 205 202 200 195 191 200 194 192 188 176 180 184 185 187 183 174 170 171 172 173 181 182 174 180 175 167 162 164 169 167 167 173 178
184 190 204 184 222 237 252 125 141 134 79 259 245 235 230 210 180 205 226 222 214 213 218 229 237 245 233 82 246 214 208 232 236 240 245 247 251 255 249 239 229 229 237 230 224 214 212 212 211 210 212 210 206 203 205 195 184 198 198 192 190 165 171 183 188 185 184 182 175 176 175 173 173 176 175 176 173 168 159 161 165 165 164 177 177 168
125 179 228 165 233 242 185 144 127 152 217 226 237 249 215 211 166 204 221 217 210 199 223 229 242 253 250 258 251 252 236 230 241 249 243 250 266 270 266 252 240 237 236 234 228 222 215 214 215 215 211 209 208 205 197 189 195 197 188 182 169 173 181 183 189 188 187 182 180 177 178 172 179 186 178 174 169 162 165 171 182 180 176 166 174 181
203 208 223 189 221 231 127 136 169 215 231 241 357 38 215 200 190 217 235 222 210 214 231 245 250 256 253 251 261 266 264 264 253 250 264 324 329 268 258 263 255 244 244 246 237 221 213 209 210 215 220 222 214 198 180 193 195 182 177 174 174 183 184 188 189 190 186 183 180 178 181 178 182 189 184 180 164 167 172 174 175 174 168 172 177 178
192 198 171 224 186 320 177 178 229 222 256 342 285 254 186 206 201 214 246 241 228 214 215 231 241 248 254 252 254 253 256 260 266 269 71 239 247 242 254 256 250 257 249 231 233 238 232 217 210 210 216 214 193 186 191 198 187 181 187 180 183 183 185 185 189 189 188 189 190 188 181 179 185 181 159 159 167 176 178 180 185 184 180 171 177 179
192 192 177 211 182 217 197 216 232 338 319 280 264 219 153 158 163 180 232 242 226 223 219 223 237 244 247 249 250 254 259 277 285 270 142 241 247 249 247 252 259 266 265 261 248 249 234 219 217 220 207 164 185 189 192 184 175 180 177 179 186 182 183 183 189 194 193 193 182 178 174 181 175 176 172 175 177 183 187 186 186 187 178 181 177 174
201 200 185 207 209 205 223 233 230 233 243 250 247 101 173 176 177 185 204 252 247 218 212 220 232 238 239 245 250 254 350 302 279 276 226 240 253 257 260 260 266 267 267 266 262 249 238 230 228 213 196 193 195 194 180 171 173 176 180 183 183 180 185 188 195 193 189 187 185 177 181 178 174 171 172 175 184 187 187 186 187 181 177 172 171 185
205 204 196 208 202 187 214 225 222 222 238 255 302 174 185 185 175 149 190 250 253 157 201 209 221 238 238 240 252 174 196 244 258 261 270 262 255 235 248 253 250 255 261 264 259 260 243 230 207 190 184 186 198 188 170 169 169 175 184 184 184 186 190 196 191 184 184 185 177 178 174 173 174 175 177 181 186 183 181 184 185 182 176 186 186 189
205 205 197 212 208 208 212 220 224 206 251 264 195 184 216 100 116 123 206 250 159 186 198 188 206 226 238 241 237 168 195 235 249 257 266 105 278 259 228 245 254 264 273 284 270 261 279 177 149 177 194 198 201 170 172 167 176 187 188 186 183 186 198 198 187 184 177 159 143 168 170 178 179 181 181 182 179 180 184 176 168 169 168 179 180 169
199 214 207 208 213 220 219 239 252 261 259 190 187 138 154 176 137 172 216 244 175 195 181 178 205 216 228 235 167 205 215 220 238 243 90 176 299 225 232 275 290 320 293 303 293 281 235 206 202 200 201 197 172 160 164 165 169 184 191 182 184 201 197 181 169 166 146 144 161 172 177 180 181 178 180 178 177 175 172 169 163 159 170 177 173 163
206 204 215 215 222 220 220 226 233 271 249 138 340 149 164 131 190 216 229 142 163 199 210 192 197 217 220 225 190 215 234 236 248 274 273 250 246 276 259 242 283 263 237 261 263 221 214 203 215 218 193 175 155 159 162 167 181 186 180 185 200 196 174 159 160 152 159 167 172 176 176 175 174 175 173 166 160 161 160 166 168 170 171 170 170 176
177 185 197 202 207 231 221 233 217 235 243 140 123 54 266 202 228 162 186 247 199 176 158 206 210 226 195 236 221 225 243 255 252 262 275 283 286 269 276 264 241 249 247 225 228 222 217 199 201 204 183 163 162 163 164 173 185 189 184 198 193 167 164 159 156 148 157 172 173 174 173 172 171 170 165 165 166 163 159 152 158 160 162 164 169 175
159 182 188 219 183 197 197 211 214 219 121 160 153 185 199 218 229 156 139 252 190 179 194 176 217 220 209 219 235 232 247 289 297 267 263 263 258 264 258 244 249 253 252 246 260 219 194 213 188 178 161 164 166 164 170 177 182 186 188 191 169 155 140 143 150 159 167 173 171 167 171 169 168 164 161 161 158 160 158 161 161 155 160 169 164 161
173 212 180 215 165 199 198 216 223 194 167 190 194 202 195 213 227 229 224 249 250 240 193 219 232 223 220 226 257 250 262 223 236 254 258 260 255 249 254 240 226 238 240 244 228 196 197 200 177 161 159 172 165 167 177 183 180 180 186 170 133 146 148 158 158 162 168 167 165 159 158 155 153 152 156 158 160 159 149 151 156 152 161 153 167 169
181 217 193 236 225 231 251 238 348 115 223 229 242 264 264 249 283 16 316 275 259 263 192 218 259 205 201 202 220 243 231 248 253 262 253 265 274 265 239 258 247 234 239 229 215 183 193 155 139 148 156 171 173 176 174 179 180 178 176 132 146 148 151 153 156 163 164 162 159 158 151 154 153 156 156 157 163 162 136 146 154 157 161 168 176 175
256 58 182 220 181 192 241 205 234 230 207 226 231 256 313 252 31 22 355 326 334 358 326 325 306 295 199 173 216 250 272 250 253 260 264 273 262 261 253 241 236 213 212 213 206 153 160 159 159 173 166 166 178 172 167 173 178 172 140 150 144 148 149 154 156 157 154 154 145 142 156 148 149 142 141 142 136 140 147 153 159 157 157 170 170 174
237 132 216 227 260 221 264 171 305 20 54 225 221 260 266 279 322 212 199 213 230 248 235 240 238 251 192 229 218 224 252 262 257 263 255 243 252 257 252 238 232 210 216 214 175 177 160 173 172 165 169 169 169 159 159 165 157 146 144 149 147 148 149 153 160 156 156 155 152 138 156 145 149 148 145 155 150 151 155 164 170 170 176 178 178 174
167 43 265 6 264 302 305 281 274 267 257 243 235 253 240 229 245 264 249 244 240 257 267 254 197 229 216 239 249 235 257 260 247 254 268 271 264 251 242 234 221 213 190 177 182 183 182 175 168 164 164 157 135 138 153 144 125 141 147 150 149 148 151 153 149 147 144 145 147 154 154 136 145 153 140 141 143 139 144 166 177 178 179 164 166 176
126 245 213 224 269 268 247 255 50 294 279 277 225 238 246 228 211 240 261 264 252 251 255 266 269 228 218 236 236 226 243 259 262 220 257 260 261 252 235 220 205 195 188 172 144 178 170 171 164 161 155 129 131 127 134 119 114 129 139 148 153 151 147 144 142 142 142 137 133 137 138 135 147 142 140 148 154 138 80 32 46 36 164 181 172 94
220 226 197 212 212 245 246 242 222 230 248 253 257 255 260 278 174 232 248 245 252 242 241 243 257 271 253 237 200 219 240 253 266 248 257 253 250 236 217 195 187 192 179 167 161 177 167 156 149 142 140 131 114 92 107 109 105 107 126 144 150 147 141 143 137 107 116 143 148 153 141 139 145 151 150 151 144 145 137 126 91 73 70 90 138 162